Location: Blue Sky Observatory
(43.1153°N, 70.9036°W)
Time: 10:07:26
(UTC-04:00)

Amateur Radio Satellites - All Passes

Search period start: 21 September 2014 09:37
Search period end: 22 September 2014 09:37
Location: Blue Sky Observatory, 43.1153°N, 70.9036°W

Satellite Date Start Highest point End Downlink Frequencies (MHz)
Time Altitude Azimuth
MaSat-1 21 Sep 09:43:48 09:47:16 18° 312° (NW) 09:50:38 437.345 MHz
UKube-1 21 Sep 09:44:08 09:47:59 30° 97° (E) 09:51:49 145.840 MHz, 145.915 MHz
HO-68 21 Sep 10:03:36 10:10:50 86° 106° (ESE) 10:18:02 435.675 MHz FM
UOSAT-12 21 Sep 10:10:38 10:12:41 13° 253° (WSW) 10:14:43 437.025 FM, 437.400 FM
Sapphire 21 Sep 10:41:26 10:44:30 16° 104° (ESE) 10:47:34 437.095 MHz 1200 baud AX-25 AFSK
FUNcube-1 21 Sep 10:55:54 11:00:29 58° 100° (E) 11:04:59 145.950 - 145.970 MHz USB
Oscar 11 21 Sep 11:01:28 11:05:42 51° 288° (WNW) 11:09:53 145.825 FM, Beacon 2401.500 USB
PCSat 21 Sep 11:06:28 11:11:01 28° 109° (ESE) 11:15:35 145.825 MHz
UKube-1 21 Sep 11:20:27 11:24:05 26° 293° (WNW) 11:27:42 145.840 MHz, 145.915 MHz
RS-15 21 Sep 11:37:50 11:48:19 45° 40° (NE) 11:59:07 29.354 - 29.394 USB, Beacon 29.352 USB
HO-68 21 Sep 11:52:39 11:57:41 21° 306° (NW) 12:02:43 435.675 MHz FM
Oscar 19 21 Sep 12:14:45 12:18:35 21° 62° (ENE) 12:22:26 437.125 CW, 437.150 USB
Sapphire 21 Sep 12:21:50 12:27:14 76° 301° (WNW) 12:32:41 437.095 MHz 1200 baud AX-25 AFSK
FUNcube-1 21 Sep 12:33:32 12:36:23 16° 297° (WNW) 12:39:13 145.950 - 145.970 MHz USB
AO-27 21 Sep 12:38:25 12:41:29 16° 59° (ENE) 12:44:32 436.795 MHz FM
PCSat 21 Sep 12:49:02 12:54:12 45° 307° (NW) 12:59:25 145.825 MHz
AO-Echo 21 Sep 12:52:02 12:55:29 21° 64° (ENE) 12:58:55 ?
Oscar 16 21 Sep 12:52:32 12:57:28 46° 70° (ENE) 13:02:26 437.025 USB, Beacon 2401.1428
JAS-1B 21 Sep 12:55:13 13:02:37 38° 66° (ENE) 13:08:56 435.800 - 435.900 CW/SSB
ITAMSAT 1 21 Sep 13:39:50 13:44:50 53° 71° (ENE) 13:49:53 435.822 SSB
Gurwin Techsat 1B 21 Sep 13:40:11 13:44:35 27° 65° (ENE) 13:48:59 435.225 FM
Uribyol 2 21 Sep 13:43:27 13:48:31 61° 72° (ENE) 13:53:39 436.500 FM
RS-15 21 Sep 13:50:20 14:01:14 64° 244° (WSW) 14:12:36 29.354 - 29.394 USB, Beacon 29.352 USB
Oscar 19 21 Sep 13:52:28 13:57:32 54° 260° (W) 14:02:39 437.125 CW, 437.150 USB
Sapphire 21 Sep 14:08:20 14:11:36 16° 322° (NW) 14:14:53 437.095 MHz 1200 baud AX-25 AFSK
AO-27 21 Sep 14:15:13 14:20:23 74° 257° (WSW) 14:25:35 436.795 MHz FM
TMSAT-1 21 Sep 14:15:19 14:20:13 40° 68° (ENE) 14:25:08 436.925 FM
AO-Echo 21 Sep 14:29:26 14:33:58 45° 261° (W) 14:38:29 ?
AO-7 21 Sep 14:31:23 14:38:08 29° 54° (NE) 14:44:52 29.400 - 29.500 MHz
Oscar 16 21 Sep 14:32:57 14:37:01 23° 267° (W) 14:41:07 437.025 USB, Beacon 2401.1428
PCSat 21 Sep 14:37:51 14:39:05 11° 330° (NNW) 14:40:19 145.825 MHz
JAS-1B 21 Sep 14:44:57 14:53:05 48° 260° (W) 14:59:58 435.800 - 435.900 CW/SSB
Gurwin Techsat 1B 21 Sep 15:19:21 15:24:20 42° 262° (W) 15:29:22 435.225 FM
ITAMSAT 1 21 Sep 15:20:56 15:24:39 20° 268° (W) 15:28:23 435.822 SSB
Uribyol 2 21 Sep 15:25:04 15:28:25 17° 269° (W) 15:31:47 436.500 FM
Uosat F 21 Sep 15:40:51 15:45:35 44° 69° (ENE) 15:50:20 435.120 FM
TMSAT-1 21 Sep 15:55:48 16:00:14 27° 266° (W) 16:04:42 436.925 FM
RS-15 21 Sep 16:06:53 16:11:17 13° 265° (W) 16:15:46 29.354 - 29.394 USB, Beacon 29.352 USB
MaSat-1 21 Sep 16:21:40 16:24:19 17° 47° (NE) 16:26:43 437.345 MHz
AO-7 21 Sep 16:21:56 16:30:14 73° 254° (WSW) 16:38:33 29.400 - 29.500 MHz
JAS-2 21 Sep 16:47:31 16:51:55 28° 65° (ENE) 16:56:19 435.800 - 435.900 CW/SSB, 435.910 FM
OPAL 21 Sep 16:48:54 16:53:08 25° 96° (E) 16:57:18 ?
Saudisat 1A 21 Sep 16:54:22 16:58:45 80° 122° (ESE) 17:03:11 436.775 MHz
Hamsat 21 Sep 17:05:06 17:08:56 31° 69° (ENE) 17:12:46 145.90 MHz
Uosat F 21 Sep 17:20:42 17:24:34 22° 266° (W) 17:28:27 435.120 FM
KITSAT 1 21 Sep 17:22:44 17:26:52 15° 99° (E) 17:30:59 435.175 FM
MaSat-1 21 Sep 17:57:48 18:01:15 36° 251° (WSW) 18:04:14 437.345 MHz
AO-7 21 Sep 18:20:39 18:24:24 14° 273° (W) 18:28:09 29.400 - 29.500 MHz
OPAL 21 Sep 18:27:18 18:32:10 42° 293° (WNW) 18:36:56 ?
JAS-2 21 Sep 18:32:13 18:36:58 35° 263° (W) 18:41:42 435.800 - 435.900 CW/SSB, 435.910 FM
Saudisat 1A 21 Sep 18:36:00 18:38:53 17° 322° (NW) 18:41:47 436.775 MHz
Hamsat 21 Sep 18:41:18 18:44:53 25° 266° (W) 18:48:30 145.90 MHz
SO-67 21 Sep 18:42:28 18:45:46 45° 74° (ENE) 18:49:06 435.3500 MHz FM
HO-68 21 Sep 18:49:28 18:53:17 15° 50° (NE) 18:57:05 435.675 MHz FM
STRAND 1 21 Sep 19:11:26 19:16:20 43° 99° (E) 19:21:13 ?
KITSAT 1 21 Sep 19:12:51 19:20:54 76° 118° (ESE) 19:29:00 435.175 FM
Sapphire 21 Sep 19:26:20 19:30:19 20° 42° (NE) 19:34:17 437.095 MHz 1200 baud AX-25 AFSK
PCSat 21 Sep 19:52:42 19:57:32 31° 48° (NE) 20:02:19 145.825 MHz
SO-67 21 Sep 20:18:25 20:19:04 10° 270° (W) 20:19:42 435.3500 MHz FM
Oscar 11 21 Sep 20:23:13 20:25:40 15° 63° (ENE) 20:28:08 145.825 FM, Beacon 2401.500 USB
HO-68 21 Sep 20:32:41 20:39:45 71° 70° (ENE) 20:46:53 435.675 MHz FM
UKube-1 21 Sep 20:40:39 20:44:26 30° 68° (ENE) 20:48:15 145.840 MHz, 145.915 MHz
STRAND 1 21 Sep 20:51:09 20:55:17 25° 296° (WNW) 20:59:25 ?
AO-40 21 Sep 21:00:53 02:46:10 39° 163° (SSE) 04:30:15 Beacon 2401.320
Sapphire 21 Sep 21:08:56 21:14:23 79° 242° (WSW) 21:19:47 437.095 MHz 1200 baud AX-25 AFSK
KITSAT 1 21 Sep 21:10:03 21:17:05 32° 321° (NW) 21:24:09 435.175 FM
SO-50 21 Sep 21:16:01 21:19:51 29° 114° (ESE) 21:23:47 436.795 FM
PCSat 21 Sep 21:35:57 21:41:05 44° 247° (WSW) 21:46:11 145.825 MHz
FUNcube-1 21 Sep 21:53:02 21:57:20 51° 72° (ENE) 22:01:45 145.950 - 145.970 MHz USB
Oscar 11 21 Sep 21:57:05 22:01:23 58° 260° (W) 22:05:43 145.825 FM, Beacon 2401.500 USB
UKube-1 21 Sep 22:17:02 22:20:38 25° 264° (W) 22:24:15 145.840 MHz, 145.915 MHz
HO-68 21 Sep 22:22:43 22:28:03 22° 268° (W) 22:33:27 435.675 MHz FM
UOSAT-12 21 Sep 22:41:51 22:45:04 19° 110° (ESE) 22:48:20 437.025 FM, 437.400 FM
Sapphire 21 Sep 22:56:02 22:56:52 10° 259° (W) 22:57:41 437.095 MHz 1200 baud AX-25 AFSK
SO-50 21 Sep 22:56:08 23:00:18 36° 313° (NW) 23:04:35 436.795 FM
KITSAT 1 21 Sep 23:11:34 23:15:36 14° 349° (N) 23:19:39 435.175 FM
FUNcube-1 21 Sep 23:31:19 23:34:03 16° 270° (W) 23:36:50 145.950 - 145.970 MHz USB
Saudisat 1A 21 Sep 23:41:54 23:44:23 15° 36° (NE) 23:46:52 436.775 MHz
UOSAT-12 22 Sep 00:20:15 00:24:48 55° 308° (NW) 00:29:27 437.025 FM, 437.400 FM
Oscar 16 22 Sep 01:04:43 01:07:34 15° 90° (E) 01:10:25 437.025 USB, Beacon 2401.1428
KITSAT 1 22 Sep 01:10:05 01:15:03 17° 20° (NNE) 01:20:00 435.175 FM
Oscar 10/S400 22 Sep 01:15:52 02:20:37 38° 225° (SW) 07:12:10 145.825 - 145.975 CW/USB, Beacon 145.810 USB
Saudisat 1A 22 Sep 01:20:13 01:24:40 83° 56° (NE) 01:29:05 436.775 MHz
ISS 22 Sep 01:38:20 01:41:25 37° 139° (SE) 01:44:32 145.800 FM
ITAMSAT 1 22 Sep 01:52:48 01:56:13 18° 91° (E) 01:59:38 435.822 SSB
Uribyol 2 22 Sep 01:56:04 01:59:53 20° 92° (E) 02:03:40 436.500 FM
Oscar 19 22 Sep 02:03:03 02:08:05 50° 100° (E) 02:13:04 437.125 CW, 437.150 USB
UOSAT-12 22 Sep 02:04:07 02:06:00 12° 329° (NNW) 02:07:55 437.025 FM, 437.400 FM
RS-15 22 Sep 02:07:48 02:14:30 19° 99° (E) 02:21:08 29.354 - 29.394 USB, Beacon 29.352 USB
AO-27 22 Sep 02:27:27 02:32:17 37° 97° (E) 02:37:05 436.795 MHz FM
JAS-1B 22 Sep 02:29:07 02:34:33 43° 99° (E) 02:40:01 435.800 - 435.900 CW/SSB
TMSAT-1 22 Sep 02:31:30 02:34:21 15° 89° (E) 02:37:11 436.925 FM
AO-Echo 22 Sep 02:34:57 02:39:42 51° 100° (E) 02:44:34 ?
Oscar 16 22 Sep 02:42:17 02:47:27 70° 287° (WNW) 02:52:33 437.025 USB, Beacon 2401.1428
Saudisat 1A 22 Sep 03:02:26 03:03:34 11° 252° (WSW) 03:04:42 436.775 MHz
KITSAT 1 22 Sep 03:05:09 03:12:52 45° 47° (NE) 03:20:31 435.175 FM
ISS 22 Sep 03:15:02 03:18:08 36° 337° (NNW) 03:21:16 145.800 FM
ITAMSAT 1 22 Sep 03:30:58 03:36:07 61° 288° (WNW) 03:41:15 435.822 SSB
Gurwin Techsat 1B 22 Sep 03:34:07 03:39:27 74° 103° (ESE) 03:44:45 435.225 FM
Uribyol 2 22 Sep 03:34:34 03:39:39 53° 289° (WNW) 03:44:43 436.500 FM
Oscar 19 22 Sep 03:43:10 03:47:04 22° 297° (WNW) 03:50:57 437.125 CW, 437.150 USB
Uosat F 22 Sep 03:49:33 03:51:34 12° 89° (E) 03:53:34 435.120 FM
OPAL 22 Sep 04:04:17 04:09:18 51° 68° (ENE) 04:14:21 ?
AO-27 22 Sep 04:07:12 04:11:40 30° 295° (WNW) 04:16:08 436.795 MHz FM
TMSAT-1 22 Sep 04:09:31 04:14:50 74° 286° (WNW) 04:20:06 436.925 FM
RS-15 22 Sep 04:13:57 04:24:58 79° 120° (ESE) 04:35:53 29.354 - 29.394 USB, Beacon 29.352 USB
AO-Echo 22 Sep 04:14:37 04:18:08 20° 296° (WNW) 04:21:43 ?
JAS-1B 22 Sep 04:20:24 04:25:03 26° 298° (WNW) 04:29:39 435.800 - 435.900 CW/SSB
AO-7 22 Sep 04:22:40 04:30:13 37° 98° (E) 04:37:42 29.400 - 29.500 MHz
Oscar 16 22 Sep 04:25:38 04:25:50 10° 305° (NW) 04:26:01 437.025 USB, Beacon 2401.1428
ISS 22 Sep 04:53:05 04:55:32 19° 357° (N) 04:57:59 145.800 FM
KITSAT 1 22 Sep 05:00:42 05:08:20 48° 248° (WSW) 05:15:55 435.175 FM
Gurwin Techsat 1B 22 Sep 05:15:34 05:18:48 17° 300° (WNW) 05:22:03 435.225 FM
Uosat F 22 Sep 05:25:53 05:30:56 80° 286° (WNW) 05:35:58 435.120 FM
JAS-2 22 Sep 05:37:59 05:43:14 28° 95° (E) 05:48:59 435.800 - 435.900 CW/SSB, 435.910 FM
OPAL 22 Sep 05:44:32 05:48:26 21° 265° (W) 05:52:23 ?
SO-50 22 Sep 05:45:59 05:50:29 38° 48° (NE) 05:55:01 436.795 FM
TMSAT-1 22 Sep 05:52:26 05:53:49 11° 304° (NW) 05:55:12 436.925 FM
AO-7 22 Sep 06:15:16 06:23:12 53° 297° (WNW) 06:31:08 29.400 - 29.500 MHz
Hamsat 22 Sep 06:25:14 06:29:24 53° 100° (E) 06:33:30 145.90 MHz
STRAND 1 22 Sep 06:28:18 06:33:21 69° 73° (ENE) 06:38:26 ?
RS-15 22 Sep 06:28:31 06:38:27 38° 326° (NW) 06:48:27 29.354 - 29.394 USB, Beacon 29.352 USB
ISS 22 Sep 06:30:09 06:33:01 26° 17° (NNE) 06:35:54 145.800 FM
Uosat F 22 Sep 07:07:28 07:08:53 11° 304° (WNW) 07:10:18 435.120 FM
UOSAT-12 22 Sep 07:09:18 07:13:16 26° 43° (NE) 07:17:12 437.025 FM, 437.400 FM
JAS-2 22 Sep 07:22:35 07:28:27 52° 289° (WNW) 07:35:04 435.800 - 435.900 CW/SSB, 435.910 FM
SO-50 22 Sep 07:26:45 07:30:57 30° 246° (WSW) 07:35:11 436.795 FM
SO-67 22 Sep 07:37:54 07:41:16 48° 99° (E) 07:44:36 435.3500 MHz FM
MaSat-1 22 Sep 07:42:27 07:47:22 61° 113° (ESE) 07:52:12 437.345 MHz
Hamsat 22 Sep 08:02:31 08:04:55 15° 297° (WNW) 08:07:18 145.90 MHz
HO-68 22 Sep 08:03:24 08:04:56 11° 85° (E) 08:06:29 435.675 MHz FM
ISS 22 Sep 08:06:40 08:09:59 71° 216° (SW) 08:13:17 145.800 FM
STRAND 1 22 Sep 08:10:16 08:13:02 15° 270° (W) 08:15:50 ?
AO-7 22 Sep 08:10:43 08:14:08 13° 319° (NW) 08:17:32 29.400 - 29.500 MHz
RS-15 22 Sep 08:46:51 08:55:07 23° 0° (N) 09:03:29 29.354 - 29.394 USB, Beacon 29.352 USB
UOSAT-12 22 Sep 08:49:06 08:53:40 48° 242° (WSW) 08:58:08 437.025 FM, 437.400 FM
SO-67 22 Sep 09:12:53 09:13:51 11° 296° (WNW) 09:14:49 435.3500 MHz FM
MaSat-1 22 Sep 09:20:42 09:24:27 21° 310° (NW) 09:28:05 437.345 MHz
